Theta_e
351 355 355 348 348 347 346 343 343 341 352 358 359 363 361 354 350 347 347 346 347 347 345 345 346 346 345 341 339 342 346 348 348 348 350 350 349 347 346 346 349 349 349 348
350 352 347 349 345 346 346 345 343 341 351 356 362 363 361 357 354 350 347 346 346 345 344 343 345 345 346 346 346 344 346 346 348 350 350 349 347 346 345 348 350 350 350 350
350 346 341 342 341 339 339 340 342 346 356 356 360 365 364 359 357 352 347 345 344 344 344 343 343 344 345 347 347 347 345 346 346 348 348 348 346 341 342 347 352 349 350 351
346 341 337 335 333 332 331 333 340 349 356 358 356 358 364 362 361 358 354 347 344 343 342 343 342 343 343 344 344 345 345 345 345 345 349 349 347 347 348 350 349 348 348 349
338 335 336 338 336 331 335 337 341 353 355 359 360 361 357 359 363 361 357 353 346 343 342 341 341 342 342 340 340 343 344 343 343 342 346 349 348 347 347 349 348 348 348 348
339 337 337 338 332 328 340 346 346 349 354 356 354 360 359 362 360 358 356 354 352 347 343 341 339 339 340 340 340 339 342 343 340 341 341 344 348 347 347 348 351 352 351 349
330 330 328 329 329 326 338 344 348 351 356 350 343 359 351 351 353 354 356 354 352 350 348 345 343 339 338 338 338 340 342 345 346 343 342 342 344 343 343 345 347 349 351 351
332 333 329 326 330 330 333 331 332 336 340 339 344 353 350 345 342 349 352 352 351 351 350 348 346 342 339 339 339 341 342 344 346 345 344 344 343 347 346 346 345 346 348 349
334 331 327 327 327 327 327 329 328 335 340 348 348 347 342 342 346 347 349 352 353 351 350 349 347 344 343 341 341 342 342 342 342 342 343 344 344 344 345 343 342 344 342 344
330 331 329 326 327 326 327 328 333 340 346 346 343 347 345 349 348 348 351 351 350 352 351 349 348 346 344 343 342 342 343 342 339 341 342 343 343 341 342 339 338 337 332 336
329 330 333 330 331 333 329 331 330 338 341 339 338 337 341 345 347 347 349 352 353 352 351 350 347 345 345 344 342 341 342 342 343 342 341 340 340 338 337 338 338 332 337 340
330 331 333 331 328 328 331 332 330 333 337 342 341 337 340 344 340 345 349 350 350 351 351 351 349 346 343 343 342 342 343 343 343 343 341 340 337 339 339 341 336 345 341 340
326 332 332 331 330 328 333 327 324 334 340 348 340 333 342 345 346 346 347 347 348 351 350 351 349 350 349 347 346 345 345 344 344 344 344 343 344 344 343 337 337 340 341 348
327 327 331 332 335 331 334 328 332 332 336 342 341 337 342 346 345 345 344 344 345 346 348 349 348 348 347 347 347 347 347 346 347 346 346 347 347 347 346 346 342 345 350 352
326 331 329 330 327 329 330 331 329 333 332 333 332 338 338 344 345 345 343 344 345 346 346 347 348 347 348 349 346 346 347 347 346 347 347 348 346 346 347 350 352 353 353 354
326 335 330 331 327 328 329 330 329 328 327 333 333 333 335 339 344 346 345 347 349 350 347 347 353 354 349 347 347 346 346 346 347 348 348 352 353 353 353 352 353 351 350 351
329 330 333 333 328 331 331 331 330 330 329 332 334 333 339 341 344 345 347 349 352 354 355 357 356 353 351 350 350 350 350 351 352 352 352 351 350 349 347 346 347 347 344 344
333 330 330 335 333 334 331 328 329 329 329 331 335 334 338 340 342 344 344 347 355 356 358 358 356 354 353 353 352 351 351 351 350 348 346 344 345 343 340 339 337 335 336 336
327 331 335 337 335 333 332 334 336 333 334 335 335 335 339 339 339 341 342 345 354 357 357 357 356 353 351 350 349 348 347 346 343 340 337 336 336 333 333 333 333 332 334 331
328 329 336 334 337 335 334 334 334 335 334 334 334 335 340 341 342 343 341 344 354 355 355 356 352 350 349 347 346 344 341 339 336 334 332 331 330 331 333 334 333 332 331 330
333 334 336 336 337 333 334 333 332 336 340 334 333 334 334 343 341 338 340 343 352 355 356 353 351 351 348 344 343 340 336 335 333 333 333 331 331 332 333 328 326 326 328 328
335 336 334 335 336 336 330 334 338 335 333 333 333 332 334 335 336 340 341 343 352 357 355 352 351 349 344 340 338 334 333 333 332 333 333 333 333 332 329 325 324 325 326 327
335 328 334 332 334 329 326 325 326 327 330 332 333 331 335 338 336 340 344 347 353 356 354 352 351 345 340 336 333 332 332 332 333 333 334 334 331 328 326 327 327 327 328 327
325 320 332 334 327 322 321 320 320 324 324 326 328 329 334 340 337 341 344 349 352 353 353 352 349 343 337 332 330 329 329 331 333 334 334 333 331 328 328 327 327 327 327 327
316 317 324 326 326 323 323 321 320 321 322 322 324 326 331 336 341 341 346 349 351 351 353 352 348 343 336 333 332 331 331 332 333 333 331 330 330 329 327 326 326 327 326 325
313 313 315 321 319 319 320 319 320 322 322 323 324 325 327 333 338 343 346 346 349 350 352 349 345 339 335 334 331 332 331 332 332 331 330 328 329 327 327 326 324 325 320 319
Wind_Speed
1 4 9 8 4 5 5 7 7 3 6 6 5 8 14 13 11 13 14 15 16 17 19 20 22 21 19 19 19 20 20 17 15 14 9 9 9 10 10 8 6 5 5 5
3 7 12 5 7 8 8 8 5 3 7 6 6 9 12 14 14 14 16 17 18 16 15 18 21 21 21 22 21 20 21 21 20 15 14 10 8 10 9 7 6 7 7 7
8 9 7 4 10 6 4 5 3 3 6 4 9 6 11 11 10 12 14 16 17 18 19 17 20 23 24 23 22 23 26 25 22 21 17 14 10 9 8 9 6 4 4 6
9 7 3 2 8 3 5 5 5 9 8 1 4 1 10 12 15 14 16 16 18 20 20 19 22 22 23 25 23 22 26 27 26 25 20 18 13 9 8 7 7 7 4 6
4 5 11 13 6 4 4 7 7 9 5 2 5 4 5 12 14 18 17 18 19 19 21 21 25 27 25 21 22 23 25 28 30 29 28 20 17 11 7 6 6 6 6 7
14 6 8 6 2 4 13 12 10 5 1 4 1 5 4 8 17 15 17 18 18 18 19 21 27 29 28 27 24 26 24 26 29 28 27 26 19 17 10 9 8 7 7 9
5 10 5 5 6 6 4 7 3 2 3 3 1 6 9 8 8 13 19 18 18 18 18 19 19 25 28 28 27 26 24 25 25 27 26 27 26 22 17 12 9 7 7 8
4 2 3 5 4 4 12 4 3 2 3 1 3 5 0 2 4 8 14 18 17 18 17 18 21 26 27 28 27 25 23 25 25 25 24 25 26 19 16 13 11 9 8 8
3 5 3 3 3 3 6 5 2 6 1 3 1 4 8 7 7 10 13 15 19 19 19 20 21 25 25 26 27 25 25 24 26 29 28 26 26 24 17 17 16 13 13 11
2 4 1 2 3 5 3 7 3 2 2 3 2 5 5 3 10 12 13 15 16 18 19 18 19 23 22 23 24 24 24 27 29 27 27 28 27 26 22 25 22 19 17 15
8 3 4 7 3 4 4 3 5 3 2 2 3 3 2 4 8 13 10 9 12 14 15 15 16 19 21 21 21 22 23 24 24 26 27 26 25 29 29 27 25 22 16 14
10 3 6 6 1 1 1 2 4 4 4 1 2 3 1 4 3 7 9 8 7 9 9 11 14 17 19 22 22 24 23 23 24 23 23 25 27 22 23 23 20 14 13 15
10 7 6 4 3 4 4 4 1 4 4 6 4 1 2 4 6 5 10 9 10 10 9 9 10 14 17 19 19 21 20 20 19 17 17 18 18 18 19 19 17 14 14 12
10 5 8 8 3 2 3 5 6 3 4 5 6 3 4 8 9 8 9 10 10 10 10 10 9 12 14 15 15 15 15 16 16 16 16 16 15 14 12 11 12 12 10 10
7 5 7 4 3 3 2 4 8 7 2 6 2 6 4 13 15 12 12 12 13 11 10 10 12 9 11 10 9 12 16 16 15 14 13 12 12 11 10 8 8 8 7 5
2 3 4 2 2 0 4 6 4 5 3 8 2 6 4 4 12 13 13 13 13 13 13 13 10 9 11 11 11 14 15 15 14 12 9 7 7 8 7 7 7 7 7 6
1 2 4 6 2 4 6 11 10 5 6 6 8 6 7 8 15 17 14 12 13 14 14 13 12 13 15 14 14 17 17 16 16 15 13 12 12 12 11 10 11 10 8 8
2 1 1 3 4 10 2 2 4 7 5 10 5 5 6 4 9 14 14 14 14 16 14 13 14 18 20 20 19 20 21 19 17 16 14 11 11 11 10 9 9 7 6 7
8 3 2 3 7 2 4 2 2 2 3 11 6 8 3 5 10 9 15 16 17 17 14 17 19 20 21 22 22 23 21 18 16 13 11 11 10 10 9 10 8 7 8 10
4 2 4 3 4 10 4 2 3 3 5 14 11 10 2 8 8 8 19 18 18 22 22 23 24 23 21 20 21 20 19 17 15 11 10 10 10 10 12 12 12 13 13 12
5 3 10 6 6 4 2 11 4 7 1 11 10 10 9 7 4 7 19 18 23 26 27 25 24 23 21 20 21 20 19 17 15 13 13 12 11 13 15 17 12 11 10 9
5 6 7 3 6 11 10 2 4 4 5 9 11 13 12 13 13 2 15 19 22 23 28 27 25 22 21 19 21 21 19 19 17 16 15 13 11 14 17 15 13 12 12 12
4 3 3 3 2 4 8 11 7 6 6 9 12 15 16 14 10 9 14 19 20 28 30 29 27 24 21 20 19 21 20 22 19 17 15 13 14 15 15 16 15 13 11 11
1 5 2 2 6 5 6 8 9 7 10 11 12 13 17 17 8 10 13 16 18 27 28 30 28 26 23 21 23 24 25 22 20 18 15 14 15 15 13 12 11 12 11 10
5 7 3 4 2 4 9 10 12 11 10 12 13 12 15 16 13 9 12 16 17 24 29 29 28 27 25 23 20 20 22 21 19 17 16 15 15 15 14 12 11 9 9 9
8 10 7 4 1 3 5 9 11 10 12 12 13 16 15 15 15 9 11 16 22 23 28 27 26 26 26 24 22 20 20 19 20 18 17 15 16 16 15 14 12 12 15 15
Wind_Direction
167 291 279 295 268 294 290 287 283 255 164 178 190 158 172 174 182 183 188 192 194 196 191 194 195 197 196 197 195 192 193 203 206 205 208 216 231 251 270 273 275 242 238 256
274 277 293 256 279 269 253 269 289 190 150 186 162 159 177 182 193 197 194 195 197 197 191 192 192 197 200 198 199 196 202 204 209 213 217 223 240 252 257 255 268 255 248 249
226 266 323 246 288 266 242 238 183 116 138 72 148 163 187 204 207 201 208 209 199 198 196 195 195 197 201 203 204 204 208 210 213 214 218 226 237 241 239 237 237 248 255 255
248 273 270 230 306 270 344 221 160 145 179 236 224 291 205 196 209 212 206 203 206 203 205 203 200 201 200 206 205 207 210 214 219 222 220 220 221 222 229 226 242 248 265 282
266 285 296 297 288 199 357 129 132 141 143 269 201 265 120 190 212 215 212 208 206 202 202 204 211 211 207 206 211 216 217 220 224 223 224 226 232 237 236 236 247 253 271 279
266 264 269 248 196 222 138 107 98 113 200 258 81 242 196 182 218 208 205 207 208 205 202 203 209 214 215 216 214 222 223 226 228 230 232 234 232 231 234 232 238 255 268 282
278 233 211 185 184 133 173 186 124 135 214 279 53 220 271 191 201 197 193 198 201 205 202 203 201 204 213 216 218 220 218 219 222 229 231 231 233 234 239 242 244 243 251 277
300 217 208 164 252 174 186 258 216 194 223 22 145 231 231 77 217 168 180 185 190 199 205 205 205 206 205 209 213 215 216 217 218 226 229 230 235 238 244 255 262 263 270 283
232 248 251 142 226 199 168 208 65 110 100 262 319 268 242 229 162 155 161 174 187 195 202 205 205 206 208 208 211 213 216 221 221 226 229 233 237 242 250 261 267 268 274 282
176 292 351 33 156 68 259 130 168 178 178 251 224 282 271 163 188 188 186 195 197 197 198 200 206 207 210 212 213 214 220 226 230 229 231 235 239 246 254 265 264 262 271 281
181 216 259 305 244 169 151 213 68 101 309 250 275 247 198 262 206 199 192 191 190 194 197 199 198 201 205 210 215 217 218 224 227 231 234 239 242 248 253 258 259 259 265 291
203 219 249 264 228 277 181 266 193 233 193 277 307 265 46 300 206 184 161 160 161 174 184 185 193 193 198 204 208 211 215 218 224 227 232 236 243 245 247 247 244 247 271 291
173 222 252 254 152 182 205 169 169 121 146 188 212 236 60 130 138 154 164 162 154 151 162 166 174 190 197 204 209 211 210 217 221 219 226 232 234 232 235 241 247 260 277 287
171 176 215 230 221 117 192 177 166 272 204 159 236 270 185 183 173 171 169 163 155 162 171 167 174 190 195 203 203 206 204 215 216 212 216 221 228 233 234 247 262 273 273 272
207 236 203 239 230 210 185 202 193 202 257 247 351 229 199 201 182 173 157 154 153 159 172 169 190 194 200 207 208 209 204 200 192 190 203 214 224 235 240 238 248 254 249 252
115 280 183 201 80 156 260 233 235 216 201 248 270 274 218 152 160 167 172 167 157 161 166 178 174 175 164 150 153 151 152 158 161 166 172 163 166 157 152 141 130 128 125 127
288 198 227 209 161 136 256 235 215 207 207 224 210 243 166 167 180 177 172 172 157 153 158 157 158 155 151 153 156 144 140 139 138 136 131 134 132 127 123 124 116 112 110 110
249 130 259 231 180 229 282 32 269 229 287 230 310 325 205 212 166 169 177 165 156 153 154 155 152 152 152 154 146 136 131 124 126 126 130 137 133 125 126 121 107 111 108 96
220 169 209 242 226 309 155 30 68 13 70 25 309 335 45 134 143 176 180 174 159 157 154 152 151 145 147 145 139 131 126 129 126 126 136 136 138 134 127 104 100 102 103 103
133 190 216 170 242 230 154 159 1 146 181 12 360 351 6 169 202 193 178 172 158 154 153 153 152 144 140 144 139 132 129 125 125 136 140 143 142 132 116 105 105 103 104 105
191 186 210 193 232 234 21 316 302 190 56 351 353 349 335 236 26 308 167 167 163 159 157 158 147 153 150 154 145 135 133 135 142 144 142 139 137 128 118 116 117 112 106 106
241 216 213 177 217 225 356 172 312 24 13 1 0 356 326 297 292 169 177 173 166 162 159 160 154 158 157 161 148 143 144 147 149 147 143 136 125 123 123 122 115 111 113 107
236 340 302 295 53 68 50 70 26 3 350 350 352 347 340 316 290 214 182 182 176 166 166 165 159 156 158 161 158 147 154 150 148 142 139 132 129 126 127 124 121 117 113 107
164 9 274 237 162 353 115 53 23 1 358 351 349 345 347 349 309 214 187 181 181 172 170 166 161 159 159 166 166 161 154 150 144 144 145 140 143 138 130 127 122 117 110 104
312 320 330 285 215 343 195 346 351 337 337 344 345 347 344 351 354 248 199 191 187 182 172 169 167 163 159 162 162 160 151 150 147 147 145 144 151 146 130 122 114 111 103 101
239 251 253 271 184 263 282 322 328 333 332 332 336 337 340 344 340 288 223 198 187 188 174 167 164 158 159 160 160 154 154 152 149 148 149 152 147 145 140 132 112 111 113 106